Flag for Slovenia Weather past 2 weeks in Ljubljana, Slovenia

Now
78 °F

Warm.


Feels Like: 80 °F
Forecast: 58 / 71 °F
Wind: 3 mph from Southwest

Location: Ljubljana / Bezigrad

Current Time: Jul 8, 2015 at 4:37:13 AM

Latest Report: Jul 8, 2015 at 3:00 AM


Visibility: N/A

Pressure: 29.83 "Hg

Humidity: 54%

Dew point: 60 °F

Location of LjubljanaLocation

Historic Weather in Ljubljana — Graph

°F

Ljubljana temperature yesterday

Maximum temperature yesterday: 96 °F (at 4:00 PM)
Minimum temperature yesterday: 71 °F (at 6:00 AM)
Average temperature yesterday: 84 °F

Past Weeks' High & Low Weather Summary

 TemperatureHumidityPressure
High96 °F (Jul 7, 4:00 PM)100% (Jun 23, 8:00 PM)30.29 "Hg (Jun 23, 8:00 PM)
Low48 °F (Jun 25, 6:00 AM)34% (Jun 25, 5:00 PM)29.77 "Hg (Jun 23, 9:00 AM)
Average72 °F67%30.10 "Hg
* Reported Jun 23 3:00 AM — Jul 8 3:00 AM, Ljubljana, Weather by CustomWeather, © 2015

Note: Actual official high and low records may vary slightly from our data, if they occured in-between our weather recording intervals... More about our weather records

Advertising

Ljubljana weather history for previous 24 hours

 ConditionsComfort  
Time TempWeatherWind HumidityBarometerVisibility
3:00 AM
Wed, Jul 8
78 °FWarm.3 mph54%29.83 "HgN/A
2:00 AM78 °FWarm.1 mph59%29.85 "HgN/A
1:00 AM79 °FWarm.1 mph58%29.87 "HgN/A
12:00 AM80 °FWarm.3 mph59%29.87 "HgN/A
11:00 PM
Tue, Jul 7
81 °FWarm.2 mph57%29.88 "HgN/A
10:00 PM84 °FPassing clouds.1 mph55%29.88 "Hg19 mi
9:00 PM86 °FPassing clouds.2 mph53%29.87 "Hg19 mi
8:00 PM88 °FSunny.3 mph49%29.86 "Hg19 mi
7:00 PM92 °FHot.3 mph41%29.86 "HgN/A
6:00 PM93 °FExtremely hot.3 mph35%29.87 "HgN/A
5:00 PM95 °FExtremely hot.3 mph36%29.88 "HgN/A
4:00 PM96 °FExtremely hot.5 mph35%29.88 "HgN/A
3:00 PM95 °FPassing clouds.2 mph40%29.89 "Hg16 mi
2:00 PM94 °FPassing clouds.1 mph40%29.92 "Hg16 mi
1:00 PM92 °FPassing clouds.1 mph42%29.94 "Hg16 mi
12:00 PM89 °FPassing clouds.1 mph49%29.96 "Hg16 mi
11:00 AM86 °FPassing clouds.1 mph56%29.99 "Hg12 mi
10:00 AM83 °FPassing clouds.1 mph62%30.01 "Hg12 mi
9:00 AM79 °FPassing clouds.1 mph70%30.03 "Hg12 mi
8:00 AM75 °FPassing clouds.1 mph79%30.05 "Hg12 mi
7:00 AM73 °FPassing clouds.No wind84%30.06 "Hg12 mi
6:00 AM71 °FPassing clouds.No wind86%30.06 "Hg16 mi
4:00 AM73 °FMild.1 mph84%30.06 "HgN/A
Weather by CustomWeather, © 2015

See weather overviewHow to use our weather pages